Location: Chrome
(40.5765°N, 74.2163°W)
Time: 23:09:18
(UTC+00:00)

Cosmos 407 Rocket - Pass Details

Date: 06 December 2019
Orbit: 743 x 787 km, 74.0° (Epoch: 20 January)

Event Time Altitude Azimuth Distance (km) Brightness Sun altitude
Rises 23:34:16 0° 186° (S) 3,178 6.9 -23.0°
Reaches altitude 10° 23:36:37 10° 182° (S) 2,263 6.1 -23.4°
Enters shadow 23:40:57 53° 138° (SE) 928 3.6 -24.2°
